Location: Frizzleburg
(41.0764°N, 80.4548°W)
Time: 08:03:21
(UTC+00:00)

Cosmos 2082 Rocket - Pass Details

Date: 17 November 2019
Orbit: 833 x 854 km, 71.0° (Epoch: 11 December)

Event Time Altitude Azimuth Distance (km) Brightness Sun altitude
Exits shadow 11:13:00 11° 312° (NW) 2,406 4.0 -11.2°
Maximum altitude 11:13:28 11° 317° (NW) 2,399 4.0 -11.1°
Drops below altitude 10° 11:15:10 10° 334° (NNW) 2,488 4.3 -10.8°
Sets 11:19:48 0° 8° (N) 3,425 5.3 -10.0°
